Theta_e
309 317 332 337 340 344 349 353 356 355 354 354 352 353 354 355 354 354 354 354 354 354 355 355 354 353 350 348 351 352 352 351 350 351 351 352 351 351 350 351 350 347 351
309 313 327 330 334 336 341 345 350 354 354 354 353 352 353 355 354 354 354 353 353 354 355 354 352 351 349 348 350 350 351 350 348 348 348 350 351 351 350 350 349 348 350
307 312 315 326 327 330 333 338 342 347 352 355 355 353 351 355 355 354 354 352 353 354 355 354 350 349 349 349 349 350 350 348 346 345 345 342 343 350 350 350 349 350 350
306 312 314 324 323 324 327 330 336 339 346 351 353 354 353 354 355 354 354 353 353 354 355 354 350 348 349 348 349 350 348 347 344 342 341 342 344 350 349 349 350 350 351
301 309 315 322 320 320 322 324 327 331 337 342 349 351 353 354 354 353 353 353 353 354 355 354 351 348 349 348 349 348 348 345 342 339 338 338 341 347 349 348 350 350 348
298 300 315 322 318 315 318 319 321 323 327 333 338 346 350 351 352 353 352 352 352 353 354 354 352 350 349 349 347 348 346 344 340 337 337 341 341 348 349 349 348 347 346
295 299 302 319 319 315 314 315 316 318 320 324 329 337 345 349 349 351 351 351 351 352 352 353 351 349 348 348 347 346 345 341 338 336 337 338 341 348 348 347 347 347 347
294 297 300 309 316 315 314 313 313 315 316 319 322 328 337 345 348 349 351 349 350 351 351 351 350 348 347 347 346 343 340 336 335 334 334 338 343 348 347 346 346 347 347
294 295 295 297 303 309 313 313 315 316 317 316 318 323 326 335 343 346 347 348 349 350 351 350 349 347 346 346 344 340 335 333 333 329 337 338 343 347 347 346 345 347 347
293 294 294 294 296 297 299 310 313 314 317 317 320 322 321 328 334 337 338 343 348 348 349 348 347 345 345 344 341 336 332 330 329 329 336 338 343 348 346 345 346 346 345
293 292 293 294 294 296 298 299 306 308 312 314 314 319 318 324 336 337 335 338 342 344 346 346 345 343 340 338 336 333 330 331 328 330 335 336 344 348 346 346 345 345 344
288 290 292 293 294 295 297 296 297 300 301 304 309 313 318 319 325 336 331 330 335 337 342 344 343 338 334 340 336 331 333 330 329 334 335 337 345 347 345 345 345 344 343
288 290 292 292 293 293 294 295 296 297 298 300 303 308 314 316 319 329 338 335 337 329 340 341 341 339 339 338 336 334 333 328 329 333 334 336 344 347 346 345 344 343 343
288 289 291 292 292 292 293 294 295 296 297 297 300 304 309 313 316 318 330 337 335 338 338 339 340 339 339 337 334 332 331 329 331 331 332 330 338 345 345 343 342 342 342
288 289 290 291 291 293 293 293 294 295 296 297 298 301 304 307 313 321 319 329 336 337 336 336 337 337 337 335 333 331 330 328 331 332 333 325 333 340 342 340 339 338 339
289 289 291 292 293 294 293 293 293 295 296 297 297 299 303 305 310 317 318 317 331 336 336 335 335 335 335 334 331 330 329 328 330 331 333 330 330 335 340 340 339 338 339
288 290 292 293 294 294 293 293 294 294 297 296 298 300 302 305 306 313 317 317 318 336 335 335 335 334 334 334 330 329 328 328 328 330 330 332 331 327 332 338 338 338 336
289 289 291 293 293 293 293 294 295 294 294 295 296 297 299 301 305 309 313 317 318 327 335 333 333 332 332 333 330 328 328 328 326 328 329 329 329 329 328 331 333 335 335
287 288 288 290 290 292 293 294 294 295 294 294 295 296 297 300 303 304 309 318 323 325 331 333 332 332 331 332 331 329 328 328 324 325 326 326 325 322 323 325 325 327 331
286 287 287 289 289 290 291 291 292 293 295 294 294 296 298 299 302 303 304 307 314 323 323 329 330 331 331 331 329 327 329 327 322 322 322 322 322 320 320 321 321 321 325
285 285 286 286 287 287 287 287 288 288 291 293 294 296 297 298 299 299 298 300 308 317 321 326 325 327 329 317 308 304 303 306 307 309 319 319 319 319 318 318 318 317 323
283 283 284 285 285 286 287 287 287 288 290 292 294 296 297 297 298 299 299 300 303 314 320 322 323 322 317 317 313 305 300 304 303 304 307 315 316 318 318 318 317 314 316
281 281 283 284 284 285 286 287 287 287 288 288 290 293 295 296 297 300 300 302 304 304 310 319 322 320 316 312 314 305 296 300 298 300 302 305 313 316 317 317 316 315 314
280 281 282 283 284 285 285 285 284 284 284 286 288 291 294 295 296 296 297 298 300 305 315 319 322 320 316 310 303 302 302 300 298 297 299 301 304 313 316 315 315 314 314
280 279 280 281 282 283 284 284 284 283 285 286 287 288 291 293 295 297 297 296 296 301 312 320 318 319 315 308 302 299 298 300 299 298 296 296 300 301 305 308 307 308 311
279 279 279 280 280 282 282 282 282 282 282 283 285 287 289 292 293 295 297 296 296 297 311 318 318 316 316 314 308 303 301 300 298 298 299 296 300 296 300 303 303 303 305
Wind_Speed
7 12 21 24 23 21 17 8 10 11 10 10 13 13 11 11 12 13 16 18 18 19 19 17 16 15 13 11 11 14 14 13 12 15 15 16 17 17 17 14 12 11 15
7 10 19 22 22 21 20 20 10 9 12 13 12 13 14 13 13 13 15 17 19 19 18 17 15 14 12 11 11 13 14 14 12 12 13 13 15 17 18 13 13 12 15
8 9 10 18 20 21 21 21 18 16 11 13 15 14 15 15 15 15 15 16 18 19 19 18 17 13 10 11 12 13 14 14 14 12 11 5 6 14 18 12 15 15 16
7 6 7 14 18 19 20 20 19 17 16 11 15 16 15 16 17 17 16 16 17 19 19 19 17 16 12 11 12 13 15 15 15 14 6 6 7 13 15 18 16 15 15
7 6 7 13 16 17 17 18 19 18 15 16 11 15 17 18 18 19 18 17 17 18 19 19 18 17 15 13 12 13 14 15 15 12 8 5 5 13 17 18 16 13 11
7 6 7 11 14 16 16 16 18 18 18 15 11 12 17 20 20 19 19 19 19 18 18 19 19 18 17 14 13 13 13 14 14 7 10 10 5 15 17 16 15 14 13
8 7 7 11 12 15 15 15 15 16 17 16 14 13 11 20 22 21 21 21 20 19 19 19 19 19 18 16 15 14 13 11 8 4 10 10 8 17 17 17 16 15 14
6 7 7 9 11 12 13 14 15 12 15 15 16 14 14 14 22 24 23 23 22 20 20 20 19 20 19 17 17 16 12 10 6 5 8 10 13 16 17 17 17 16 16
6 6 6 6 7 9 9 11 13 10 10 13 16 14 15 14 17 24 24 24 24 22 21 21 19 20 20 19 18 15 14 11 5 3 6 7 15 18 19 17 17 16 15
4 4 4 5 5 5 5 8 9 10 10 12 10 10 12 13 11 15 19 22 25 24 22 21 20 21 21 20 18 15 14 11 5 3 5 7 18 19 19 18 16 16 16
1 2 2 4 4 3 3 4 6 8 10 10 10 6 7 7 7 11 15 18 23 24 22 21 21 21 20 18 17 16 13 5 5 2 4 15 17 20 19 18 17 17 16
5 4 4 5 4 4 3 3 5 5 4 4 6 6 4 5 7 10 13 18 19 20 23 22 22 20 16 10 9 13 7 5 4 4 5 16 20 20 21 20 18 18 17
5 3 4 5 5 5 4 2 2 2 3 4 6 7 5 5 5 6 7 7 10 14 12 15 15 11 14 10 9 9 8 6 4 4 10 15 19 21 21 20 19 18 19
8 6 7 7 7 6 4 3 3 2 3 4 4 7 5 4 4 4 6 7 10 9 14 13 10 13 14 14 14 12 11 8 5 4 10 16 15 20 22 20 19 16 14
7 8 8 7 7 6 6 4 3 3 3 5 4 6 5 5 7 4 6 8 8 10 11 12 13 12 14 14 13 13 13 11 9 7 7 18 16 17 19 20 20 19 15
8 8 8 7 7 6 5 5 4 4 5 4 5 5 7 6 7 7 5 7 9 9 10 11 12 12 13 13 14 14 14 12 10 10 8 11 19 16 19 19 20 20 19
7 3 6 4 5 5 5 6 5 4 4 3 4 6 6 6 7 7 6 6 7 8 12 11 13 12 12 13 15 14 12 12 10 12 10 10 12 17 18 18 19 20 19
6 5 3 4 5 5 5 4 5 5 5 4 4 5 7 9 9 7 7 7 7 11 9 11 12 13 12 13 12 12 12 11 11 13 11 10 10 9 12 16 16 19 19
6 4 3 5 6 7 5 5 6 7 6 5 5 5 7 10 10 8 6 6 7 6 7 9 11 15 14 13 14 13 13 12 11 10 13 12 13 10 8 13 15 15 19
2 1 1 4 6 6 5 4 6 7 6 5 5 5 7 8 10 7 5 6 6 7 8 5 10 14 14 15 12 14 12 10 7 10 12 11 12 12 10 9 9 9 16
5 6 5 4 5 3 2 4 5 7 8 6 5 8 10 9 10 9 7 8 8 9 9 10 11 10 14 9 10 3 9 7 8 4 7 11 12 12 11 8 7 5 8
6 6 6 5 5 4 3 3 4 6 7 7 7 8 8 9 9 9 9 10 11 8 11 12 13 10 1 11 7 6 3 3 6 5 3 7 12 10 11 10 10 8 6
7 7 8 6 6 6 6 7 8 8 9 10 10 9 9 8 8 7 8 7 9 8 11 9 9 13 12 3 8 8 6 4 3 4 5 3 7 8 8 10 10 9 7
6 7 8 10 10 7 7 7 10 9 11 10 10 9 8 13 13 12 11 8 8 8 12 9 7 10 12 12 4 7 8 4 6 3 2 3 5 6 8 7 8 7 7
8 8 9 10 11 11 9 9 9 13 11 10 10 14 13 13 11 12 12 11 12 10 13 11 8 15 14 10 6 4 4 8 2 5 4 2 4 2 3 6 5 5 5
10 11 12 14 14 13 11 11 13 16 15 12 12 11 10 9 9 11 13 11 11 11 14 12 11 16 16 14 12 10 6 4 4 4 5 4 8 3 3 4 6 3 4
Wind_Direction
27 39 36 39 34 27 25 357 201 192 195 202 201 189 176 158 148 144 141 142 147 150 154 163 166 165 154 145 126 128 123 122 120 119 118 122 124 128 128 120 113 120 124
90 47 40 41 39 34 30 32 4 211 194 189 200 200 185 173 162 156 153 151 152 155 158 163 169 166 163 150 141 132 127 123 118 115 118 123 129 136 139 124 121 126 124
72 53 42 40 40 37 31 28 32 16 239 201 188 197 201 181 172 166 163 161 161 161 162 166 170 171 162 149 147 141 135 131 127 120 113 112 126 143 145 131 132 131 128
74 80 55 42 38 38 35 28 29 25 10 258 213 190 199 193 180 174 172 171 171 171 170 167 170 168 161 156 150 145 142 141 137 129 118 129 134 143 147 142 139 138 129
44 69 54 47 33 33 34 30 25 23 20 14 275 222 199 194 188 180 176 177 179 181 176 170 169 168 162 162 155 149 150 152 152 140 136 128 125 140 143 144 140 132 126
23 26 48 41 33 25 25 27 21 14 14 9 338 326 224 204 194 185 182 181 183 188 183 175 171 162 165 167 162 160 164 166 165 151 142 140 139 145 141 137 128 125 124
11 6 22 33 32 30 17 15 12 4 4 1 350 331 305 226 203 193 190 186 185 188 193 182 173 166 168 166 165 169 179 180 166 179 149 140 146 151 144 139 132 128 124
21 3 15 22 27 30 10 4 356 357 353 352 348 340 317 273 221 204 195 193 188 189 193 188 177 169 170 167 166 172 185 184 181 195 158 143 153 154 145 145 142 139 134
31 34 10 15 20 11 13 352 338 349 345 343 335 335 334 308 255 221 203 198 193 190 191 190 179 173 171 170 169 174 181 186 178 189 156 146 152 157 154 154 150 146 143
47 23 4 10 12 10 358 334 340 346 340 324 316 319 328 300 281 244 224 207 196 194 190 190 176 175 173 171 171 175 185 182 168 191 143 151 153 156 156 155 151 150 145
10 355 8 357 355 359 338 330 338 327 317 315 309 302 319 315 284 249 230 221 206 196 191 189 177 177 174 171 172 178 181 179 184 190 162 159 160 160 159 151 151 150 149
331 330 343 338 327 323 309 310 304 306 300 307 309 308 302 295 318 250 231 214 214 200 192 188 181 179 168 175 181 179 184 168 164 178 165 162 160 163 164 161 160 156 153
254 279 288 285 284 287 287 261 276 292 301 304 310 306 300 299 293 318 238 216 207 205 202 190 181 179 179 176 182 184 182 165 159 169 160 163 163 163 165 164 165 167 164
281 267 277 273 272 267 263 270 243 268 283 291 287 299 304 296 291 277 300 210 212 197 207 198 191 178 182 182 183 182 182 176 167 157 173 162 169 169 166 167 167 171 155
266 259 255 254 250 253 254 259 263 252 261 267 276 277 287 282 280 272 273 293 210 193 204 203 199 186 184 181 184 182 185 179 168 164 169 165 161 173 169 181 181 182 170
237 247 245 256 248 243 244 241 246 238 245 260 268 255 263 265 269 267 253 264 272 200 196 198 189 187 183 180 186 187 187 183 173 163 171 172 162 169 166 182 182 180 172
247 344 37 16 31 3 326 303 288 258 258 256 264 271 275 274 274 264 251 262 268 223 198 198 185 189 191 184 185 188 181 184 174 170 167 170 167 164 165 183 184 179 181
116 80 30 6 347 336 321 308 298 285 255 239 244 260 272 277 273 268 256 255 243 269 190 194 187 186 190 190 183 189 183 182 173 172 166 171 164 167 166 170 185 180 179
112 82 14 341 326 315 312 302 293 288 274 253 234 239 251 265 274 277 272 267 249 245 280 196 191 190 188 193 190 184 182 183 171 168 169 172 163 161 168 173 176 179 178
77 69 305 299 300 305 313 305 302 296 283 252 239 234 239 250 248 254 272 275 267 260 247 190 220 194 194 191 201 184 180 171 163 171 173 166 170 164 165 170 173 180 180
11 359 339 318 299 308 298 291 284 275 280 271 254 250 241 245 252 263 272 274 274 265 254 242 224 241 189 149 118 355 71 76 89 76 181 167 168 168 165 163 166 168 186
345 333 328 313 308 298 287 268 268 287 285 289 279 255 246 243 246 246 244 254 256 257 235 224 218 208 242 178 155 122 117 58 44 35 50 161 171 165 170 170 167 171 171
332 319 312 297 278 269 266 277 278 275 278 277 270 266 262 256 242 238 241 241 257 251 260 249 233 204 208 225 231 137 160 124 127 1 37 22 127 161 169 162 170 168 163
316 310 303 300 291 279 272 274 272 269 269 265 265 270 265 250 248 243 244 249 259 265 251 233 211 191 166 185 288 43 68 121 147 147 348 306 48 143 170 166 168 166 162
321 311 304 301 297 293 282 273 271 269 267 267 263 270 265 260 262 243 235 236 250 256 250 222 193 191 169 153 147 119 74 75 30 133 150 136 54 14 97 132 118 127 140
314 309 306 301 293 291 288 279 271 269 270 269 268 263 258 253 248 246 238 229 238 247 252 217 184 202 180 165 162 149 138 156 191 148 119 131 138 356 66 92 108 116 98